CW8217 Weather Reports


time (UTC)temp
F
wind
direction
speed
knots
gust
knots
rain 1hr
in
rain 24hr
in
rain mn
in
humidity
%
barometer
mb
20260507213704 51 290 5.2 5.2 0.00 0.09 0.03 78 1011.9
20260507213204 50 290 5.2 5.2 0.00 0.09 0.03 80 1011.7
20260507212204 49 290 5.2 5.2 0.00 0.09 0.03 82 1011.6
20260507211704 49 290 5.2 5.2 0.00 0.09 0.03 83 1011.7
20260507211204 48 290 5.2 5.2 0.00 0.09 0.03 83 1011.7
20260507210705 48 290 5.2 5.2 0.00 0.09 0.03 83 1011.6
20260507210204 48 289 5.2 6.1 0.00 0.09 0.03 83 1011.7
20260507205704 48 280 6.1 6.1 0.00 0.09 0.03 83 1011.9
20260507205204 49 280 6.1 6.1 0.00 0.09 0.03 83 1012.0
20260507203705 50 280 6.1 6.1 0.00 0.09 0.03 84 1011.8
20260507202705 50 280 6.1 6.1 0.00 0.09 0.03 85 1011.5
20260507202204 50 280 6.1 6.1 0.00 0.09 0.03 84 1011.4
20260507201705 50 280 6.1 6.1 0.00 0.09 0.03 85 1011.3
20260507201205 50 280 6.1 6.1 0.00 0.09 0.03 84 1011.3
20260507200705 50 280 6.1 6.1 0.00 0.09 0.03 84 1011.2
20260507200204 50 281 5.2 6.1 0.00 0.09 0.03 85 1011.4
20260507195704 51 300 5.2 5.2 0.00 0.09 0.03 85 1011.4
20260507195204 51 300 5.2 5.2 0.00 0.09 0.03 84 1011.3
20260507194705 51 300 5.2 5.2 0.00 0.09 0.03 84 1011.3
20260507194204 51 300 5.2 5.2 0.00 0.09 0.03 83 1011.2
20260507193705 51 300 5.2 5.2 0.00 0.09 0.03 83 1011.3
20260507192704 51 300 5.2 5.2 0.00 0.09 0.03 84 1011.3
20260507192205 51 300 5.2 5.2 0.00 0.09 0.03 85 1011.4
20260507191704 51 300 5.2 5.2 0.00 0.09 0.03 85 1011.4
20260507191204 51 300 5.2 5.2 0.00 0.09 0.03 84 1011.3
20260507190204 52 298 6.1 7.8 0.00 0.09 0.03 84 1011.5
20260507185705 52 280 7.8 7.8 0.00 0.09 0.03 84 1011.7
20260507185205 53 280 7.8 7.8 0.00 0.09 0.03 83 1011.8
20260507184705 53 280 7.8 7.8 0.00 0.09 0.03 82 1011.6
20260507184204 54 280 7.8 7.8 0.00 0.09 0.03 82 1011.7
20260507182705 55 280 7.8 7.8 0.00 0.09 0.03 80 1011.5
20260507182204 55 280 7.8 7.8 0.00 0.09 0.03 79 1011.5
20260507181207 56 280 7.8 7.8 0.00 0.09 0.03 79 1011.6
20260507180705 57 280 7.8 7.8 0.00 0.09 0.03 76 1011.5
20260507180204 58 282 7.8 7.8 0.00 0.09 0.03 76 1011.6
20260507175204 58 330 7.0 7.0 0.00 0.09 0.03 78 1011.5
20260507174704 58 330 7.0 7.0 0.00 0.09 0.03 80 1011.5
20260507173705 58 330 7.0 7.0 0.00 0.09 0.03 77 1011.4
20260507173205 58 330 7.0 7.0 0.00 0.09 0.03 78 1011.5
20260507172704 58 330 7.0 7.0 0.00 0.09 0.03 79 1011.4
20260507172204 58 330 7.0 7.0 0.00 0.09 0.03 79 1011.4
20260507171705 58 330 7.0 7.0 0.00 0.09 0.03 79 1011.4
20260507171204 57 330 7.0 7.0 0.00 0.09 0.03 80 1011.4
20260507170704 57 330 7.0 7.0 0.00 0.09 0.03 80 1011.3
20260507170207 58 329 5.2 7.0 0.00 0.09 0.03 79 1011.4
20260507165204 59 290 4.3 4.3 0.00 0.10 0.03 78 1011.3
20260507164704 60 290 4.3 4.3 0.00 0.10 0.03 77 1011.3
20260507164205 60 290 4.3 4.3 0.00 0.10 0.03 76 1011.3
20260507163704 60 290 4.3 4.3 0.00 0.10 0.03 78 1011.1
20260507163204 60 290 4.3 4.3 0.00 0.10 0.03 78 1011.2
20260507162704 60 290 4.3 4.3 0.00 0.10 0.03 77 1011.2
20260507162204 60 290 4.3 4.3 0.00 0.10 0.03 79 1011.2
20260507161704 60 290 4.3 4.3 0.00 0.10 0.03 78 1011.1
20260507161204 60 290 4.3 4.3 0.00 0.10 0.03 78 1011.0
20260507160705 60 290 4.3 4.3 0.00 0.10 0.03 78 1011.1
20260507160205 59 290 5.2 6.1 0.00 0.10 0.03 80 1011.2
20260507155704 58 290 6.1 6.1 0.00 0.10 0.03 81 1011.2
20260507155204 59 290 6.1 6.1 0.00 0.10 0.03 80 1011.3
20260507154705 58 290 6.1 6.1 0.00 0.10 0.03 83 1011.2
20260507154205 58 290 6.1 6.1 0.00 0.10 0.03 80 1011.2
20260507153705 58 290 6.1 6.1 0.00 0.10 0.03 80 1011.3
20260507153204 58 290 6.1 6.1 0.00 0.10 0.03 81 1011.3
20260507152705 59 290 6.1 6.1 0.00 0.10 0.03 82 1011.2
20260507152205 59 290 6.1 6.1 0.00 0.10 0.03 81 1011.2
20260507151204 59 290 6.1 6.1 0.00 0.10 0.03 82 1011.2
20260507150705 59 290 6.1 6.1 0.00 0.10 0.03 83 1011.2
20260507150205 58 290 5.2 6.1 0.00 0.10 0.03 84 1011.1
20260507145704 59 290 4.3 4.3 0.00 0.10 0.03 82 1011.0
20260507145204 59 290 4.3 4.3 0.00 0.10 0.03 82 1011.2
20260507144704 60 290 4.3 4.3 0.00 0.10 0.03 81 1011.2
20260507144204 60 290 4.3 4.3 0.00 0.10 0.03 82 1011.3
20260507143704 60 290 4.3 4.3 0.00 0.10 0.03 82 1011.2
20260507142204 59 290 4.3 4.3 0.00 0.10 0.03 83 1011.0
20260507141705 59 290 4.3 4.3 0.00 0.10 0.03 86 1011.2
20260507141205 59 290 4.3 4.3 0.00 0.10 0.03 86 1011.1
20260507140704 58 290 4.3 4.3 0.00 0.10 0.03 88 1011.2
20260507140204 58 290 5.2 6.1 0.00 0.10 0.03 88 1011.3
20260507135205 58 290 6.1 6.1 0.00 0.10 0.03 87 1011.0
20260507134705 58 290 6.1 6.1 0.00 0.10 0.03 87 1011.1
20260507133204 57 290 6.1 6.1 0.00 0.11 0.03 91 1011.2
20260507132204 57 290 6.1 6.1 0.00 0.11 0.03 92 1011.3
20260507131704 57 290 6.1 6.1 0.00 0.12 0.03 92 1011.2
20260507131205 57 290 6.1 6.1 0.00 0.12 0.03 93 1011.3
20260507130204 57 289 4.3 6.1 0.00 0.12 0.03 94 1011.1
20260507125704 56 270 2.6 2.6 0.00 0.12 0.03 95 1011.0
20260507125205 56 270 2.6 2.6 0.00 0.13 0.03 95 1011.4
20260507124704 56 270 2.6 2.6 0.00 0.13 0.03 95 1011.5
20260507124205 56 270 2.6 2.6 0.00 0.13 0.03 95 1011.3
20260507123704 55 270 2.6 2.6 0.00 0.13 0.03 95 1011.3
20260507123205 55 270 2.6 2.6 0.00 0.14 0.03 95 1011.6
20260507122706 55 270 2.6 2.6 0.00 0.14 0.03 95 1011.5
20260507122205 55 270 2.6 2.6 0.00 0.14 0.03 95 1011.8
20260507121705 55 270 2.6 2.6 0.00 0.14 0.03 95 1012.1
20260507120704 55 270 2.6 2.6 0.00 0.14 0.03 95 1012.1
20260507120205 56 270 2.6 2.6 0.00 0.14 0.03 96 1012.1
20260507115704 55 270 2.6 2.6 0.00 0.14 0.03 96 1011.9
20260507115204 55 270 2.6 2.6 0.00 0.14 0.03 95 1011.9
20260507114704 56 270 2.6 2.6 0.00 0.15 0.03 96 1011.7
20260507114204 56 270 2.6 2.6 0.00 0.15 0.03 96 1011.7
20260507113704 55 270 2.6 2.6 0.00 0.15 0.03 96 1011.7
20260507113204 55 270 2.6 2.6 0.00 0.16 0.03 96 1011.8
20260507112204 55 270 2.6 2.6 0.00 0.17 0.03 96 1011.5
20260507111704 55 270 2.6 2.6 0.00 0.17 0.03 96 1011.3
20260507110204 55 275 4.3 6.1 0.00 0.17 0.03 96 1011.3
20260507105704 55 330 6.1 6.1 0.00 0.17 0.03 96 1011.0
20260507105204 55 330 6.1 6.1 0.00 0.17 0.03 96 1011.2
20260507104704 55 330 6.1 6.1 0.00 0.17 0.03 96 1011.5
20260507104204 55 330 6.1 6.1 0.00 0.17 0.03 96 1011.5
20260507103705 55 330 6.1 6.1 0.00 0.17 0.03 95 1011.4
20260507102704 55 330 6.1 6.1 0.00 0.17 0.03 95 1011.2
20260507102204 56 330 6.1 6.1 0.01 0.17 0.03 96 1011.1
20260507101705 56 330 6.1 6.1 0.01 0.17 0.03 95 1011.1
20260507101204 56 330 6.1 6.1 0.01 0.17 0.03 95 1011.2
20260507100704 56 330 5.2 6.1 0.01 0.17 0.03 95 1011.1
20260507100204 56 330 6.1 6.1 0.01 0.17 0.03 95 1011.0
20260507095705 56 330 6.1 6.1 0.01 0.17 0.03 96 1011.0
20260507094704 56 330 6.1 6.1 0.01 0.17 0.03 96 1011.3
20260507094204 56 330 6.1 6.1 0.01 0.17 0.03 96 1011.2
20260507093205 56 330 6.1 6.1 0.01 0.17 0.03 96 1011.2
20260507092705 56 330 6.1 6.1 0.01 0.17 0.03 96 1011.1
20260507092204 56 330 6.1 6.1 0.01 0.16 0.02 96 1011.3
20260507091704 56 330 6.1 6.1 0.01 0.16 0.02 96 1011.1
20260507090704 56 330 6.1 6.1 0.01 0.16 0.02 96 1011.1
20260507090205 56 328 5.2 6.1 0.01 0.16 0.02 95 1011.1
20260507085204 56 270 5.2 5.2 0.01 0.16 0.02 95 1010.9
20260507084705 56 270 5.2 5.2 0.01 0.16 0.02 95 1011.0
20260507084204 56 270 5.2 5.2 0.01 0.16 0.02 95 1011.1
20260507083705 56 270 5.2 5.2 0.01 0.16 0.02 96 1011.5
20260507083205 56 270 5.2 5.2 0.01 0.17 0.02 96 1011.4
20260507082704 56 270 5.2 5.2 0.01 0.17 0.02 96 1011.4
20260507082204 56 270 5.2 5.2 0.00 0.16 0.01 96 1011.4
20260507081704 56 270 5.2 5.2 0.00 0.16 0.01 96 1011.4
20260507080705 56 270 5.2 5.2 0.00 0.16 0.01 96 1011.6
20260507080205 56 270 5.2 5.2 0.00 0.16 0.01 95 1011.6
20260507075205 56 270 5.2 5.2 0.00 0.16 0.01 95 1011.8
20260507074705 56 270 5.2 5.2 0.00 0.16 0.01 95 1012.0
20260507074205 56 270 5.2 5.2 0.00 0.16 0.01 95 1011.8
20260507073705 56 270 5.2 5.2 0.00 0.16 0.01 95 1011.6
20260507073205 56 270 5.2 5.2 0.00 0.16 0.01 95 1011.5
20260507072704 56 270 5.2 5.2 0.00 0.16 0.01 95 1011.8
20260507072205 56 270 5.2 5.2 0.00 0.16 0.01 95 1011.8
20260507071704 56 270 5.2 5.2 0.00 0.16 0.01 95 1011.9
20260507071204 55 270 5.2 5.2 0.00 0.16 0.01 95 1011.9
20260507070705 55 270 5.2 5.2 0.00 0.16 0.01 95 1011.8
20260507070205 55 269 4.3 5.2 0.00 0.16 0.01 95 1011.8
20260507065704 55 250 4.3 4.3 0.00 0.16 0.01 95 1011.5
20260507064705 55 250 4.3 4.3 0.00 0.16 0.01 95 1011.9
20260507064204 55 250 4.3 4.3 0.00 0.16 0.01 95 1011.8
20260507063704 55 250 4.3 4.3 0.00 0.16 0.01 95 1011.9
20260507063205 55 250 4.3 4.3 0.00 0.16 0.01 95 1012.2
20260507062704 55 250 4.3 4.3 0.00 0.16 0.01 95 1012.3
20260507062207 55 250 4.3 4.3 0.00 0.16 0.01 95 1012.4
20260507061704 55 250 4.3 4.3 0.01 0.16 0.01 95 1012.3
20260507061205 55 250 4.3 4.3 0.01 0.16 0.01 95 1012.3
20260507060705 55 250 4.3 4.3 0.01 0.16 0.01 95 1012.3
20260507060204 55 252 6.1 7.8 0.01 0.16 0.01 95 1012.2
20260507055705 55 270 7.8 7.8 0.01 0.16 0.01 95 1012.1
20260507055204 56 270 7.8 7.8 0.01 0.16 0.01 95 1012.2
20260507054204 56 270 7.8 7.8 0.01 0.16 0.01 94 1012.4
20260507053204 56 270 7.8 7.8 0.01 0.16 0.01 94 1013.0
20260507052204 56 270 7.8 7.8 0.01 0.16 0.01 93 1012.9
20260507051704 56 270 7.8 7.8 0.00 0.15 0.00 93 1013.0
20260507051204 57 270 7.8 7.8 0.00 0.15 0.00 93 1012.7
20260507050205 57 270 5.2 7.8 0.00 0.15 0.00 94 1013.2
20260507045705 57 280 2.6 2.6 0.00 0.15 0.00 94 1013.2
20260507045205 57 280 2.6 2.6 0.00 0.15 0.00 94 1013.3
20260507044704 57 280 2.6 2.6 0.00 0.15 0.00 94 1013.3
20260507044205 57 280 2.6 2.6 0.00 0.15 0.00 94 1013.4
20260507043704 57 280 2.6 2.6 0.00 0.15 0.00 94 1013.6
20260507043205 57 280 2.6 2.6 0.00 0.15 0.00 94 1013.7
20260507042704 57 280 2.6 2.6 0.00 0.15 0.00 94 1013.8
20260507042205 57 280 2.6 2.6 0.00 0.15 0.00 94 1013.8
20260507041704 57 280 2.6 2.6 0.00 0.15 0.00 94 1013.7
20260507041204 58 280 2.6 2.6 0.01 0.15 0.00 94 1013.7
20260507040205 58 278 5.2 7.8 0.01 0.15 0.00 94 1013.6
20260507035704 58 250 7.8 7.8 0.01 0.15 0.15 94 1013.5
20260507035204 58 250 7.8 7.8 0.01 0.15 0.15 94 1013.4
20260507034704 58 250 7.8 7.8 0.02 0.15 0.15 94 1014.0
20260507034204 58 250 7.8 7.8 0.02 0.15 0.15 94 1013.8
20260507033704 58 250 7.8 7.8 0.02 0.15 0.15 94 1013.7
20260507033204 58 250 7.8 7.8 0.02 0.15 0.15 94 1013.4
20260507031704 58 250 7.8 7.8 0.03 0.15 0.15 94 1013.4
20260507031204 58 250 7.8 7.8 0.02 0.14 0.14 94 1013.3
20260507030705 58 250 7.8 7.8 0.02 0.14 0.14 93 1013.5
20260507030205 58 249 8.7 18.2 0.03 0.14 0.14 93 1013.3
20260507025704 58 240 8.7 18.2 0.03 0.14 0.14 93 1013.2
20260507024704 58 240 8.7 18.2 0.02 0.13 0.13 93 1013.2
20260507023705 59 240 8.7 18.2 0.02 0.13 0.13 92 1013.5
20260507023205 59 240 8.7 18.2 0.03 0.13 0.13 92 1013.6
20260507022704 59 240 8.7 18.2 0.02 0.12 0.12 92 1013.9
20260507022205 59 240 8.7 18.2 0.02 0.12 0.12 92 1014.7
20260507021704 59 240 8.7 18.2 0.02 0.12 0.12 92 1014.8
20260507021204 59 240 8.7 18.2 0.03 0.12 0.12 93 1014.6
20260507020704 59 240 8.7 18.2 0.03 0.12 0.12 92 1014.6
20260507020204 59 240 7.8 18.2 0.02 0.11 0.11 92 1014.3
20260507015705 59 250 6.1 6.1 0.02 0.11 0.11 92 1014.1
20260507015204 59 250 6.1 6.1 0.02 0.11 0.11 92 1014.1
20260507014204 59 250 6.1 6.1 0.02 0.11 0.11 91 1013.8
20260507013704 59 250 6.1 6.1 0.02 0.11 0.11 91 1013.7
20260507013204 60 250 6.1 6.1 0.01 0.10 0.10 90 1013.7
20260507012705 60 250 6.1 6.1 0.01 0.10 0.10 90 1013.5
20260507012204 60 250 6.1 6.1 0.01 0.10 0.10 89 1013.6
20260507011704 60 250 6.1 6.1 0.01 0.10 0.10 88 1013.5
20260507010704 61 250 6.1 6.1 0.00 0.09 0.09 87 1013.8
20260507010205 61 249 4.3 6.1 0.00 0.09 0.09 86 1013.9
20260507005705 61 220 2.6 2.6 0.00 0.09 0.09 86 1014.0
20260507004705 62 220 2.6 2.6 0.00 0.09 0.09 85 1012.9
20260507004204 62 220 2.6 2.6 0.00 0.09 0.09 83 1013.3
20260507003205 62 220 2.6 2.6 0.00 0.09 0.09 84 1012.8
20260507002706 62 220 2.6 2.6 0.00 0.09 0.09 83 1013.0
20260507002204 62 220 2.6 2.6 0.00 0.09 0.09 83 1013.0
20260507001705 62 220 2.6 2.6 0.00 0.09 0.09 83 1013.1
20260507001204 62 220 2.6 2.6 0.00 0.09 0.09 85 1013.2
20260507000704 62 220 2.6 2.6 0.00 0.09 0.09 86 1013.2
20260507000205 62 224 4.3 6.1 0.00 0.09 0.09 85 1013.1
20260506235704 62 260 6.1 6.1 0.00 0.09 0.09 85 1013.0
20260506235204 62 260 6.1 6.1 0.00 0.09 0.09 83 1012.8
20260506234705 62 260 6.1 6.1 0.00 0.09 0.09 83 1012.7
20260506233705 63 260 6.1 6.1 0.00 0.09 0.09 83 1013.0
20260506233205 63 260 6.1 6.1 0.00 0.09 0.09 84 1013.2
20260506232704 63 260 6.1 6.1 0.00 0.09 0.09 82 1013.0
20260506232205 63 260 6.1 6.1 0.00 0.09 0.09 82 1012.7
20260506231705 63 260 6.1 6.1 0.00 0.09 0.09 81 1012.5
20260506230704 63 260 6.1 6.1 0.00 0.09 0.09 79 1012.8
20260506230205 64 259 8.7 20.0 0.00 0.09 0.09 81 1013.0
20260506225205 64 250 11.3 20.0 0.00 0.09 0.09 80 1013.0
20260506224704 64 250 11.3 20.0 0.00 0.09 0.09 81 1012.8
20260506224204 64 250 11.3 20.0 0.00 0.09 0.09 81 1012.8
20260506223704 64 250 11.3 20.0 0.00 0.09 0.09 80 1012.6
20260506223205 64 250 11.3 20.0 0.00 0.09 0.09 82 1012.8
20260506222704 64 250 11.3 20.0 0.00 0.09 0.09 79 1012.7
20260506222204 64 250 11.3 20.0 0.00 0.09 0.09 83 1012.9
20260506221705 64 250 11.3 20.0 0.00 0.09 0.09 81 1013.0
20260506221206 64 250 11.3 20.0 0.00 0.09 0.09 82 1013.1
20260506220705 64 250 11.3 20.0 0.00 0.09 0.09 79 1012.7
20260506215705 65 250 10.4 24.3 0.00 0.09 0.09 78 1013.4
20260506215204 65 250 10.4 24.3 0.00 0.09 0.09 78 1013.4